Weather History for White Plains, NY

Change the Weather History Date:

Saturday, November 17, 2012

  Actual Average Record
Temperature  
Mean Temperature 42 °F -  
Max Temperature 52 °F 48 °F 64 °F (1987)
Min Temperature 33 °F 34 °F 24 °F (1980)
Degree Days  
Heating Degree Days 22    
Moisture  
Dew Point 27 °F    
Average Humidity 59    
Maximum Humidity 73    
Minimum Humidity 43    
Precipitation  
Precipitation 0.00 in - - ()
Sea Level Pressure  
Sea Level Pressure 30.57 in    
Wind  
Wind Speed 8 mph (North)    
Max Wind Speed 10 mph    
Max Gust Speed 17 mph    
Visibility 10 miles    
Events      
Averages and records for this station are not official NWS values.
T = Trace of Precipitation, MM = Missing Value Source: NWS Daily Summary

Daily Weather History Graph

Daily Weather History Graph

Search for Another Location

Airport:

Trip Planner

Search our weather history database for the weather conditions in past years. The results will help you decide how hot, cold, wet, or windy it might be!

Date:

Astronomy

Nov. 17, 2012 Rise Set
Actual Time 6:45 AM EST 4:34 PM EST
Civil Twilight 6:15 AM EST 5:03 PM EST
Nautical Twilight 5:42 AM EST 5:37 PM EST
Astronomical Twilight 5:09 AM EST 6:09 PM EST
Moon 10:28 AM EST (11/17) 8:40 PM EST (11/17)
Length of Visible Light 10h 48m
Length of Day
9h 48m
Waxing Crescent, 20% of the Moon is Illuminated
Nov 17
Waxing Crescent
Nov 20
First Quarter
Nov 28
Full
Dec 6
Last Quarter
Dec 13
New

Hourly Weather History & Observations

Time (EST) Temp. Windchill Dew Point Humidity Pressure Visibility Wind Dir Wind Speed Gust Speed Precip Events Conditions
12:56 AM 37.0 °F 30.4 °F 24.1 °F 59% 30.44 in 10.0 mi North 9.2 mph - N/A   Clear
1:56 AM 36.0 °F 29.0 °F 24.1 °F 62% 30.45 in 10.0 mi NNW 9.2 mph - N/A   Clear
2:56 AM 35.1 °F 29.3 °F 23.0 °F 61% 30.47 in 10.0 mi NNW 6.9 mph - N/A   Clear
3:56 AM 33.1 °F 26.1 °F 24.1 °F 70% 30.49 in 10.0 mi NNW 8.1 mph - N/A   Clear
4:56 AM 34.0 °F 26.0 °F 24.1 °F 67% 30.51 in 10.0 mi NNW 10.4 mph - N/A   Clear
5:56 AM 34.0 °F 26.6 °F 25.0 °F 70% 30.53 in 10.0 mi NNW 9.2 mph - N/A   Clear
6:56 AM 35.1 °F 28.6 °F 25.0 °F 67% 30.56 in 10.0 mi NNW 8.1 mph - N/A   Clear
7:56 AM 39.0 °F 32.8 °F 27.0 °F 62% 30.58 in 10.0 mi North 9.2 mph - N/A   Clear
8:56 AM 42.1 °F 36.1 °F 28.0 °F 58% 30.60 in 10.0 mi North 10.4 mph - N/A   Clear
9:56 AM 45.0 °F 39.7 °F 28.9 °F 53% 30.61 in 10.0 mi NNE 10.4 mph 17.3 mph N/A   Clear
10:56 AM 48.0 °F - 30.0 °F 50% 30.61 in 10.0 mi North 9.2 mph - N/A   Clear
11:56 AM 50.0 °F - 30.2 °F 47% 30.58 in 10.0 mi Calm Calm - N/A   Clear
12:56 PM 50.0 °F - 30.0 °F 46% 30.58 in 10.0 mi Variable 4.6 mph - N/A   Clear
1:56 PM 52.0 °F - 30.0 °F 43% 30.57 in 10.0 mi NNW 5.8 mph - N/A   Clear
2:56 PM 51.1 °F - 30.0 °F 44% 30.57 in 10.0 mi NNW 5.8 mph - N/A   Clear
3:56 PM 48.9 °F - 28.0 °F 44% 30.59 in 10.0 mi NNW 6.9 mph - N/A   Clear
4:56 PM 46.0 °F 43.9 °F 28.0 °F 50% 30.60 in 10.0 mi North 4.6 mph - N/A   Clear
5:56 PM 43.0 °F 40.3 °F 28.0 °F 56% 30.61 in 10.0 mi North 4.6 mph - N/A   Clear
6:56 PM 39.0 °F 34.0 °F 28.0 °F 65% 30.62 in 10.0 mi North 6.9 mph - N/A   Clear
7:56 PM 37.9 °F 35.5 °F 28.0 °F 68% 30.63 in 10.0 mi North 3.5 mph - N/A   Clear
8:56 PM 37.0 °F 32.4 °F 28.0 °F 70% 30.63 in 10.0 mi NNW 5.8 mph - N/A   Clear
9:56 PM 39.0 °F 32.3 °F 28.0 °F 65% 30.62 in 10.0 mi North 10.4 mph - N/A   Clear
10:56 PM 34.0 °F 28.8 °F 26.1 °F 73% 30.63 in 10.0 mi North 5.8 mph - N/A   Clear
11:56 PM 35.1 °F 31.0 °F 27.0 °F 72% 30.63 in 10.0 mi North 4.6 mph - N/A   Clear